• In Hungary
  • List of Countries
  • For 7 days
  • Water Temperature
  • Satellite Maps
  • Weather Map
  • News
  • Weather Widgets
  • user-avatar
    Login

    Hourly Weather Rodinskiy

    Today, 18 July, Wednesday

    Time Temperature Precipitation Wind Pressure Humidity
    00:00 +21°C° 0 mm 4 mps 745 mmHg 87%
    01:00 +20°C° 0 mm 4 mps 745 mmHg 88%
    02:00 +20°C° 0 mm 3 mps 745 mmHg 89%
    03:00 +20°C° 0 mm 3 mps 744 mmHg 89%
    04:00 +20°C° 0 mm 2 mps 744 mmHg 87%
    05:00 +21°C° 0.2 mm 2 mps 744 mmHg 86%
    06:00 +21°C° 0.2 mm 2 mps 744 mmHg 85%
    07:00 +23°C° 0.2 mm 2 mps 745 mmHg 84%
    08:00 +24°C° 0.2 mm 2 mps 745 mmHg 79%
    09:00 +26°C° 0.2 mm 2 mps 745 mmHg 74%
    10:00 +27°C° 0.2 mm 2 mps 745 mmHg 68%
    11:00 +29°C° 0.3 mm 2 mps 745 mmHg 61%
    12:00 +30°C° 0.3 mm 2 mps 745 mmHg 54%
    13:00 +31°C° 0.3 mm 2 mps 745 mmHg 47%
    14:00 +31°C° 0 mm 2 mps 744 mmHg 47%
    15:00 +31°C° 0 mm 2 mps 744 mmHg 48%
    16:00 +31°C° 0 mm 2 mps 744 mmHg 49%
    17:00 +30°C° 0 mm 2 mps 744 mmHg 52%
    18:00 +30°C° 0 mm 2 mps 745 mmHg 56%
    19:00 +29°C° 0 mm 2 mps 745 mmHg 59%
    20:00 +28°C° 0 mm 2 mps 745 mmHg 61%
    21:00 +26°C° 0 mm 1 mps 745 mmHg 64%
    22:00 +25°C° 0 mm 1 mps 745 mmHg 66%
    23:00 +24°C° 0.2 mm 1 mps 745 mmHg 67%

    Tomorrow, 19 July, Thursday

    Time Temperature Precipitation Wind Pressure Humidity
    00:00 +24°C° 0.2 mm 1 mps 745 mmHg 68%
    01:00 +21°C° 0.2 mm 0 mps 745 mmHg 69%
    02:00 +23°C° 0.4 mm 1 mps 746 mmHg 71%
    03:00 +23°C° 0.4 mm 1 mps 746 mmHg 72%
    04:00 +22°C° 0.4 mm 1 mps 746 mmHg 74%
    05:00 +23°C° 0.1 mm 1 mps 746 mmHg 71%
    06:00 +24°C° 0.1 mm 1 mps 746 mmHg 69%
    07:00 +25°C° 0.1 mm 1 mps 746 mmHg 67%
    08:00 +27°C° 0 mm 1 mps 747 mmHg 61%
    09:00 +29°C° 0 mm 2 mps 747 mmHg 55%
    10:00 +30°C° 0 mm 2 mps 747 mmHg 49%
    11:00 +31°C° 0 mm 2 mps 747 mmHg 46%
    12:00 +31°C° 0 mm 2 mps 747 mmHg 43%
    13:00 +32°C° 0 mm 2 mps 747 mmHg 41%
    14:00 +32°C° 0 mm 2 mps 747 mmHg 42%
    15:00 +32°C° 0 mm 2 mps 747 mmHg 43%
    16:00 +32°C° 0 mm 1 mps 747 mmHg 45%
    17:00 +31°C° 0 mm 1 mps 747 mmHg 47%
    18:00 +31°C° 0 mm 1 mps 747 mmHg 49%
    19:00 +29°C° 0 mm 0 mps 747 mmHg 51%
    20:00 +29°C° 0 mm 1 mps 747 mmHg 52%
    21:00 +28°C° 0 mm 1 mps 747 mmHg 53%
    22:00 +27°C° 0 mm 2 mps 748 mmHg 54%
    23:00 +26°C° 0 mm 2 mps 748 mmHg 57%

    Day after tomorrow, 20 July, Friday

    Time Temperature Precipitation Wind Pressure Humidity
    00:00 +25°C° 0 mm 1 mps 747 mmHg 59%
    01:00 +24°C° 0 mm 1 mps 747 mmHg 62%
    02:00 +24°C° 0 mm 1 mps 747 mmHg 63%
    03:00 +24°C° 0 mm 1 mps 748 mmHg 64%
    04:00 +24°C° 0 mm 1 mps 748 mmHg 65%
    05:00 +24°C° 0 mm 1 mps 748 mmHg 65%
    06:00 +25°C° 0 mm 2 mps 748 mmHg 65%
    07:00 +26°C° 0 mm 2 mps 748 mmHg 66%
    08:00 +27°C° 0 mm 2 mps 748 mmHg 61%
    09:00 +29°C° 0 mm 2 mps 748 mmHg 56%
    10:00 +31°C° 0 mm 2 mps 748 mmHg 51%
    11:00 +31°C° 0 mm 2 mps 748 mmHg 48%
    12:00 +32°C° 0 mm 2 mps 748 mmHg 44%
    13:00 +33°C° 0 mm 1 mps 748 mmHg 41%
    14:00 +33°C° 0 mm 1 mps 748 mmHg 42%
    15:00 +33°C° 0 mm 1 mps 748 mmHg 43%
    16:00 +33°C° 0 mm 1 mps 748 mmHg 45%
    17:00 +32°C° 0 mm 2 mps 748 mmHg 49%
    18:00 +31°C° 0 mm 2 mps 748 mmHg 53%
    19:00 +30°C° 0 mm 3 mps 748 mmHg 57%
    20:00 +29°C° 0 mm 3 mps 748 mmHg 61%
    21:00 +27°C° 0 mm 3 mps 748 mmHg 66%
    22:00 +26°C° 0 mm 3 mps 748 mmHg 70%
    23:00 +25°C° 0 mm 3 mps 748 mmHg 73%

    21 July, Saturday

    Time Temperature Precipitation Wind Pressure Humidity
    00:00 +24°C° 0 mm 3 mps 748 mmHg 76%
    01:00 +24°C° 0 mm 3 mps 747 mmHg 79%
    02:00 +22°C° 0 mm 3 mps 748 mmHg 81%
    03:00 +22°C° 0 mm 3 mps 748 mmHg 83%
    04:00 +21°C° 0 mm 3 mps 748 mmHg 85%
    05:00 +22°C° 0 mm 3 mps 748 mmHg 84%
    06:00 +23°C° 0 mm 4 mps 748 mmHg 83%
    07:00 +23°C° 0 mm 4 mps 748 mmHg 82%
    08:00 +26°C° 0 mm 4 mps 748 mmHg 76%
    09:00 +27°C° 0 mm 4 mps 748 mmHg 70%
    10:00 +29°C° 0 mm 5 mps 748 mmHg 65%
    11:00 +30°C° 0 mm 5 mps 748 mmHg 61%
    12:00 +32°C° 0 mm 5 mps 748 mmHg 57%
    13:00 +32°C° 0 mm 6 mps 748 mmHg 53%
    14:00 +33°C° 0 mm 6 mps 747 mmHg 53%
    15:00 +33°C° 0 mm 6 mps 747 mmHg 53%
    16:00 +33°C° 0 mm 6 mps 747 mmHg 52%
    17:00 +32°C° 0 mm 5 mps 747 mmHg 57%
    18:00 +30°C° 0 mm 5 mps 747 mmHg 61%
    19:00 +29°C° 0 mm 4 mps 747 mmHg 65%
    20:00 +27°C° 0 mm 4 mps 747 mmHg 70%
    21:00 +26°C° 0 mm 4 mps 747 mmHg 75%
    22:00 +23°C° 0 mm 4 mps 748 mmHg 80%
    23:00 +23°C° 0 mm 5 mps 747 mmHg 79%

    22 July, Sunday

    Time Temperature Precipitation Wind Pressure Humidity
    00:00 +23°C° 0 mm 5 mps 747 mmHg 78%
    01:00 +23°C° 0 mm 6 mps 747 mmHg 77%
    02:00 +22°C° 0 mm 6 mps 747 mmHg 78%
    03:00 +22°C° 0 mm 6 mps 747 mmHg 79%
    04:00 +22°C° 0 mm 6 mps 747 mmHg 80%
    05:00 +22°C° 0 mm 7 mps 747 mmHg 79%
    06:00 +22°C° 0 mm 7 mps 747 mmHg 78%
    07:00 +22°C° 0 mm 7 mps 747 mmHg 77%
    08:00 +23°C° 0.1 mm 7 mps 747 mmHg 74%
    09:00 +24°C° 0.1 mm 7 mps 747 mmHg 72%
    10:00 +26°C° 0.1 mm 7 mps 747 mmHg 69%
    11:00 +26°C° 0.2 mm 7 mps 747 mmHg 70%
    12:00 +26°C° 0.2 mm 7 mps 747 mmHg 71%
    13:00 +26°C° 0.2 mm 7 mps 747 mmHg 72%
    14:00 +26°C° 0.3 mm 6 mps 747 mmHg 72%
    15:00 +26°C° 0.3 mm 6 mps 747 mmHg 72%
    16:00 +26°C° 0.3 mm 6 mps 747 mmHg 72%
    17:00 +26°C° 0.7 mm 6 mps 747 mmHg 73%
    18:00 +24°C° 0.7 mm 7 mps 748 mmHg 73%
    19:00 +24°C° 0.7 mm 7 mps 748 mmHg 74%
    20:00 +23°C° 0.7 mm 7 mps 748 mmHg 74%
    21:00 +23°C° 0.7 mm 7 mps 748 mmHg 74%
    22:00 +22°C° 0.7 mm 7 mps 748 mmHg 73%
    23:00 +21°C° 0.2 mm 7 mps 749 mmHg 71%

    23 July, Monday

    Time Temperature Precipitation Wind Pressure Humidity
    00:00 +21°C° 0.2 mm 7 mps 749 mmHg 69%
    01:00 +20°C° 0.2 mm 7 mps 749 mmHg 66%
    02:00 +20°C° 0 mm 7 mps 749 mmHg 63%
    03:00 +20°C° 0 mm 7 mps 749 mmHg 61%
    04:00 +18°C° 0 mm 7 mps 749 mmHg 58%
    05:00 +18°C° 0 mm 7 mps 750 mmHg 60%
    06:00 +18°C° 0 mm 7 mps 750 mmHg 61%
    07:00 +18°C° 0 mm 8 mps 750 mmHg 62%
    08:00 +20°C° 0 mm 8 mps 750 mmHg 60%
    09:00 +21°C° 0 mm 8 mps 750 mmHg 58%
    10:00 +22°C° 0 mm 8 mps 750 mmHg 56%
    11:00 +22°C° 0 mm 8 mps 750 mmHg 54%
    12:00 +23°C° 0 mm 8 mps 751 mmHg 52%
    13:00 +24°C° 0 mm 8 mps 751 mmHg 50%
    14:00 +24°C° 0 mm 7 mps 751 mmHg 50%
    15:00 +24°C° 0 mm 7 mps 751 mmHg 51%
    16:00 +24°C° 0 mm 7 mps 751 mmHg 51%
    17:00 +23°C° 0 mm 6 mps 751 mmHg 54%
    18:00 +23°C° 0 mm 6 mps 751 mmHg 56%
    19:00 +22°C° 0 mm 5 mps 751 mmHg 59%
    20:00 +22°C° 0 mm 6 mps 751 mmHg 59%
    21:00 +21°C° 0 mm 6 mps 752 mmHg 58%
    22:00 +20°C° 0 mm 6 mps 752 mmHg 57%
    23:00 +20°C° 0 mm 6 mps 752 mmHg 57%
    Show more